Location: Bower School (historical)
(37.8389°N, 89.5348°W)
Time: 03:16:54
(UTC+00:00)

SL-16 R/B - Pass Details

Date: 11 December 2025
Orbit: 984 x 1007 km, 99.8° (Epoch: 15 January)

Event Time Altitude Azimuth Distance (km) Brightness Sun altitude
Rises 23:28:06 0° 5° (N) 3,726 5.3 -9.5°
Reaches altitude 10° 23:30:45 10° 358° (N) 2,769 4.7 -10.0°
Maximum altitude 23:36:21 37° 293° (WNW) 1,502 4.0 -11.1°
Drops below altitude 10° 23:41:54 10° 229° (SW) 2,742 6.1 -12.1°
Sets 23:44:32 0° 221° (SW) 3,684 6.7 -12.6°
